Hourly Data Report for March 17, 2020

TORONTO CITY
ONTARIO
Current Station Operator: ECCC - MSC

43°40'00.000" N
79°24'00.000" W
112.50 m
6158355
71508
XTO

Download Data

Hourly Data (March 2020)
Hourly Data Report for March 17, 2020
TIME
LST
Temp Definition
°C
Dew Point Definition
°C
Rel Hum Definition
%
Precip. Amount Definition
mm

Wind Dir Definition
10's deg

Wind Spd Definition
km/h
Visibility Definition
km
Stn Press Definition
kPa
Hmdx Definition


Wind Chill Definition


Weather Definition


00:00 1.9 -0.1 86 0.0       100.50     LegendNANA
01:00 2.1 0.5 89 0.0       100.42     LegendNANA
02:00 2.6 1.1 90 0.0       100.36     LegendNANA
03:00 2.8 1.4 90 0.0       100.29     LegendNANA
04:00 3.0 1.4 89 0.0       100.25     LegendNANA
05:00 3.3 1.5 87 0.0       100.24     LegendNANA
06:00 3.8 1.2 83 0.0       100.27     LegendNANA
07:00 3.9 1.0 82 0.0       100.31     LegendNANA
08:00 4.1 1.4 83 0.0       100.33     LegendNANA
09:00 4.6 1.4 80 0.0       100.33     LegendNANA
10:00 5.8 0.5 69 0.0       100.36     LegendNANA
11:00 5.8 0.0 66 0.0       100.43     LegendNANA
12:00 5.9 -0.5 63 0.0       100.49     LegendNANA
13:00 7.0 -2.8 50 0.0       100.51     LegendNANA
14:00 7.6 -3.6 45 0.0       100.54     LegendNANA
15:00 8.3 -5.5 37 0.2       100.59     LegendNANA
16:00 7.5 -3.0 47 0.0       100.66     LegendNANA
17:00 7.1 -6.3 38 0.2       100.73     LegendNANA
18:00 6.2 -8.9 33 0.0       100.82     LegendNANA
19:00 5.4 -8.3 36 0.0       100.93     LegendNANA
20:00 4.0 -7.5 43 0.0       101.04     LegendNANA
21:00 3.3 -7.5 45 0.0       101.12     LegendNANA
22:00 3.3 -7.1 46 0.0       101.22     LegendNANA
23:00 2.2 -6.8 51 0.0       101.31     LegendNANA

Notes on Data Quality.

Legend

  • E = Estimated
  • M = Missing
  • NA = Not Available*
  • [empty] = Indicates an unobserved value
Date modified: